Regional Weather Roundup
Issued by NWS

Home | Current Version | Previous Version | Text Only | Print | Product List | Glossary On
Versions: 1 2 3 4 5 6 7 8 9 10 11 12 13 14 15 16 17 18 19 20 21 22 23 24 25 26 27 28 29 30 31 32 33 34 35 36 37 38 39 40 41 42 43 44 45 46 47 48 49 50
000
ASUS44 KLIX 140910
RWRLA
LOUISIANA WEATHER ROUNDUP
NATIONAL WEATHER SERVICE NEW ORLEANS LA
300 AM CST SUN FEB 14 2016

NOTE: "FAIR" INDICATES FEW OR NO CLOUDS BELOW 12,000 FEET WITH NO
      SIGNIFICANT WEATHER AND/OR OBSTRUCTIONS TO VISIBILITY.
      SKY/WX - SKY CONDITION AND SIGNIFICANT WEATHER.
      TMP - AIR TEMPERATURE.    DP   - DEWPOINT TEMPERATURE.
      RH  - RELATIVE HUMIDITY.  PRES - PRESSURE.
      HX  - HEAT INDEX.         WCI  - WIND CHILL INDEX.

*  THESE STATIONS ARE NOT NWS OR FAA STATIONS AND ARE NOT UNDER
   NWS QUALITY CONTROL.

LAZ040-048-061>063-065-066-069-141000-
SOUTHEAST LOUISIANA

CITY           SKY/WX    TMP DP  RH WIND       PRES   REMARKS
N.O. AUDUBON   NOT AVBL
N.O. INTL ARPT PTCLDY    48  37  65 E3        30.24F
N.O. LAKEFRONT CLEAR     49  42  77 E7        30.25F
N.O. DOWNTOWN* NOT AVBL
RESERVE*       FAIR      47  41  77 E5        30.23F
SLIDELL        PTCLDY    36  31  82 CALM      30.24F
BATON ROUGE    PTCLDY    44  37  76 E6        30.21F
BOOTHVILLE     PTCLDY    50  44  80 CALM      30.23F
BELLE CHASSE   CLEAR     38  36  92 CALM      30.24
BOGALUSA*        N/A     37  30  75 CALM      30.27F
GALLIANO*      MOSUNNY   52  44  75 E3        30.23F
NEW ROADS*     FAIR      46  38  76 E6        30.21F
GONZALES*      FAIR      43  42  94 CALM      30.22F
HAMMOND*       CLEAR     43  25  49 E6        30.24F
HOUMA*         CLEAR     42  41  98 NE5       30.23F
PORT FOURCHON* SUNNY     55  45  67 E10       30.23F

$$

LAZ041-044-053-054-141000-
SOUTHWEST LOUISIANA

CITY           SKY/WX    TMP DP  RH WIND       PRES   REMARKS
LAKE CHARLES   CLOUDY    53  50  89 SE10      30.16F
LAFAYETTE      PTCLDY    50  44  80 VRB5      30.20F
PATTERSON      CLEAR     48  41  76 SE3       30.23F
SALT POINT       N/A     49  45  86 SE6       30.20F
NEW IBERIA     PTCLDY    44  42  93 SE5       30.22F
CHENAULT AIRPK CLOUDY    50  49  94 E5        30.16F

$$

LAZ027-028-141000-
CENTRAL LOUISIANA

CITY           SKY/WX    TMP DP  RH WIND       PRES   REMARKS
FORT POLK      CLOUDY    47  35  64 SE6       30.15F
ALEXANDRIA INT PTCLDY    44  33  65 S6        30.17F
ALEXANDRIA     PTCLDY    43  32  65 E3        30.18F

$$

LAZ001-002-141000-
NORTHWEST LOUISIANA

CITY           SKY/WX    TMP DP  RH WIND       PRES   REMARKS
SHREVEPORT     CLOUDY    45  25  45 SE10      30.12F
BARKSDALE AFB  CLOUDY    43  22  43 S12       30.14F
DTN SHREVEPORT CLOUDY    44  23  43 SE10      30.14F

$$

LAZ014-016-141000-
NORTHEAST LOUISIANA

CITY           SKY/WX    TMP DP  RH WIND       PRES   REMARKS
MONROE         MOCLDY    41  24  51 CALM      30.21F
TALLULAH       CLOUDY    45  20  36 SE15      30.22F

$$




USA.gov is the U.S. government's official web portal to all federal, state and local government web resources and services.